Time,TemperatureF,DewpointF,PressureIn,WindDirection,WindDirectionDegrees,WindSpeedMPH,WindSpeedGustMPH,Humidity,HourlyPrecipIn,Conditions,Clouds,dailyrainin,SoftwareType,DateUTC
2013-03-03 00:00:00,20.2,12.6,30.16,SSE,147,4.0,14.0,72,0.00,,,0.00,VWS V14.00,2013-03-03 06:00:00,
2013-03-03 00:05:00,20.1,12.5,30.16,SSE,159,2.0,12.0,72,0.00,,,0.00,VWS V14.00,2013-03-03 06:05:00,
2013-03-03 00:10:00,20.1,12.5,30.16,SE,136,10.0,14.0,72,0.00,,,0.00,VWS V14.00,2013-03-03 06:10:00,
2013-03-03 00:15:00,19.9,12.3,30.15,SE,144,12.0,15.0,72,0.00,,,0.00,VWS V14.00,2013-03-03 06:15:00,
2013-03-03 00:20:00,19.8,12.2,30.15,SE,138,5.0,15.0,72,0.00,,,0.00,VWS V14.00,2013-03-03 06:20:00,
2013-03-03 00:25:00,19.8,12.2,30.15,SSE,152,10.0,15.0,72,0.00,,,0.00,VWS V14.00,2013-03-03 06:25:00,
2013-03-03 00:30:00,19.7,12.1,30.15,SE,134,9.0,15.0,72,0.00,,,0.00,VWS V14.00,2013-03-03 06:30:00,
2013-03-03 00:35:00,19.7,12.5,30.15,SE,138,9.0,14.0,73,0.00,,,0.00,VWS V14.00,2013-03-03 06:35:00,
2013-03-03 00:40:00,19.7,12.5,30.15,SE,146,13.0,14.0,73,0.00,,,0.00,VWS V14.00,2013-03-03 06:40:00,
2013-03-03 00:45:00,19.7,12.5,30.15,SSE,148,10.0,15.0,73,0.00,,,0.00,VWS V14.00,2013-03-03 06:45:00,
2013-03-03 00:50:00,19.7,12.8,30.15,SSE,156,9.0,15.0,74,0.00,,,0.00,VWS V14.00,2013-03-03 06:50:00,
2013-03-03 00:55:00,19.7,12.8,30.15,SE,145,10.0,15.0,74,0.00,,,0.00,VWS V14.00,2013-03-03 06:55:00,
2013-03-03 01:00:00,19.7,12.8,30.14,SSE,157,3.0,15.0,74,0.00,,,0.00,VWS V14.00,2013-03-03 07:00:00,
2013-03-03 01:05:00,19.7,12.8,30.14,SSE,159,2.0,9.0,74,0.00,,,0.00,VWS V14.00,2013-03-03 07:05:00,
2013-03-03 01:10:00,19.7,12.5,30.14,SSE,155,3.0,12.0,73,0.00,,,0.00,VWS V14.00,2013-03-03 07:10:00,
2013-03-03 01:15:00,19.8,12.6,30.14,SE,146,0.0,12.0,73,0.00,,,0.00,VWS V14.00,2013-03-03 07:15:00,
2013-03-03 01:20:00,19.7,12.5,30.14,SSE,149,2.0,12.0,73,0.00,,,0.00,VWS V14.00,2013-03-03 07:20:00,
2013-03-03 01:25:00,19.7,12.8,30.14,ESE,122,0.0,12.0,74,0.00,,,0.00,VWS V14.00,2013-03-03 07:25:00,
2013-03-03 01:30:00,19.7,12.8,30.14,SSE,153,1.0,12.0,74,0.00,,,0.00,VWS V14.00,2013-03-03 07:30:00,
2013-03-03 01:35:00,19.7,13.1,30.14,SSE,160,0.0,9.0,75,0.00,,,0.00,VWS V14.00,2013-03-03 07:35:00,
2013-03-03 01:40:00,19.7,13.1,30.14,SSE,165,0.0,9.0,75,0.00,,,0.00,VWS V14.00,2013-03-03 07:40:00,
2013-03-03 01:45:00,19.7,13.1,30.14,SSE,159,0.0,14.0,75,0.00,,,0.00,VWS V14.00,2013-03-03 07:45:00,
2013-03-03 01:50:00,19.7,13.1,30.14,East,98,1.0,14.0,75,0.00,,,0.00,VWS V14.00,2013-03-03 07:50:00,
2013-03-03 01:55:00,19.7,13.1,30.14,South,169,0.0,14.0,75,0.00,,,0.00,VWS V14.00,2013-03-03 07:55:00,
2013-03-03 02:00:00,19.7,13.1,30.14,SSE,161,0.0,14.0,75,0.00,,,0.00,VWS V14.00,2013-03-03 08:00:00,
2013-03-03 02:05:00,19.7,13.1,30.14,SE,133,1.0,3.0,75,0.00,,,0.00,VWS V14.00,2013-03-03 08:05:00,
2013-03-03 02:10:00,19.8,13.2,30.14,SE,130,0.0,9.0,75,0.00,,,0.00,VWS V14.00,2013-03-03 08:10:00,
2013-03-03 02:14:00,19.8,13.5,30.14,SSE,165,2.0,9.0,76,0.00,,,0.00,VWS V14.00,2013-03-03 08:14:00,
2013-03-03 02:19:00,19.9,13.6,30.14,South,181,3.0,9.0,76,0.00,,,0.00,VWS V14.00,2013-03-03 08:19:00,
2013-03-03 02:24:00,19.9,13.6,30.13,SSE,153,1.0,9.0,76,0.00,,,0.00,VWS V14.00,2013-03-03 08:24:00,
2013-03-03 02:29:00,19.7,13.7,30.13,SSE,156,2.0,9.0,77,0.00,,,0.00,VWS V14.00,2013-03-03 08:29:00,
2013-03-03 02:34:00,19.7,13.7,30.13,SSE,153,3.0,4.0,77,0.00,,,0.00,VWS V14.00,2013-03-03 08:34:00,
2013-03-03 02:39:00,19.7,14.0,30.13,SSE,150,2.0,5.0,78,0.00,,,0.00,VWS V14.00,2013-03-03 08:39:00,
2013-03-03 02:44:00,19.7,14.0,30.12,East,84,0.0,5.0,78,0.00,,,0.00,VWS V14.00,2013-03-03 08:44:00,
2013-03-03 02:49:00,19.7,14.0,30.12,SSE,161,0.0,6.0,78,0.00,,,0.00,VWS V14.00,2013-03-03 08:49:00,
2013-03-03 02:54:00,19.7,14.0,30.12,SSE,155,0.0,6.0,78,0.00,,,0.00,VWS V14.00,2013-03-03 08:54:00,
2013-03-03 02:59:00,19.5,13.8,30.12,SSE,153,0.0,6.0,78,0.00,,,0.00,VWS V14.00,2013-03-03 08:59:00,
2013-03-03 03:04:00,19.3,13.6,30.12,SE,146,4.0,7.0,78,0.00,,,0.00,VWS V14.00,2013-03-03 09:04:00,
2013-03-03 03:09:00,19.2,13.5,30.11,SE,140,6.0,7.0,78,0.00,,,0.00,VWS V14.00,2013-03-03 09:09:00,
2013-03-03 03:14:00,19.2,13.8,30.11,SE,146,4.0,10.0,79,0.00,,,0.00,VWS V14.00,2013-03-03 09:14:00,
2013-03-03 03:19:00,19.1,13.7,30.11,SSE,153,7.0,10.0,79,0.00,,,0.00,VWS V14.00,2013-03-03 09:19:00,
2013-03-03 03:24:00,19.3,13.9,30.10,SE,144,4.0,10.0,79,0.00,,,0.00,VWS V14.00,2013-03-03 09:24:00,
2013-03-03 03:29:00,19.2,13.8,30.10,SE,144,7.0,13.0,79,0.00,,,0.00,VWS V14.00,2013-03-03 09:29:00,
2013-03-03 03:34:00,19.1,13.7,30.10,SE,134,9.0,9.0,79,0.00,,,0.00,VWS V14.00,2013-03-03 09:34:00,
2013-03-03 03:39:00,19.1,14.0,30.10,SSE,148,4.0,11.0,80,0.00,,,0.00,VWS V14.00,2013-03-03 09:39:00,
2013-03-03 03:44:00,19.0,13.9,30.10,SSE,152,5.0,11.0,80,0.00,,,0.00,VWS V14.00,2013-03-03 09:44:00,
2013-03-03 03:49:00,19.1,14.0,30.10,SE,146,3.0,11.0,80,0.00,,,0.00,VWS V14.00,2013-03-03 09:49:00,
2013-03-03 03:54:00,19.3,14.1,30.10,SE,146,6.0,13.0,80,0.00,,,0.00,VWS V14.00,2013-03-03 09:54:00,
2013-03-03 03:59:00,19.3,14.1,30.10,SSE,155,4.0,13.0,80,0.00,,,0.00,VWS V14.00,2013-03-03 09:59:00,
2013-03-03 04:04:00,19.2,14.1,30.10,SSE,161,2.0,9.0,80,0.00,,,0.00,VWS V14.00,2013-03-03 10:04:00,
2013-03-03 04:09:00,19.1,14.2,30.10,SSE,149,6.0,10.0,81,0.00,,,0.00,VWS V14.00,2013-03-03 10:09:00,
2013-03-03 04:14:00,19.0,14.1,30.09,SE,138,6.0,10.0,81,0.00,,,0.00,VWS V14.00,2013-03-03 10:14:00,
2013-03-03 04:19:00,18.3,13.5,30.10,ESE,123,6.0,10.0,81,0.00,,,0.00,VWS V14.00,2013-03-03 10:19:00,
2013-03-03 04:24:00,17.9,13.1,30.09,ESE,115,7.0,10.0,81,0.00,,,0.00,VWS V14.00,2013-03-03 10:24:00,
2013-03-03 04:29:00,17.3,12.5,30.10,ESE,120,8.0,10.0,81,0.00,,,0.00,VWS V14.00,2013-03-03 10:29:00,
2013-03-03 04:34:00,17.1,12.6,30.10,ESE,121,10.0,12.0,82,0.00,,,0.00,VWS V14.00,2013-03-03 10:34:00,
2013-03-03 04:39:00,17.1,12.6,30.10,ESE,120,8.0,12.0,82,0.00,,,0.00,VWS V14.00,2013-03-03 10:39:00,
2013-03-03 04:44:00,17.0,12.7,30.10,ESE,115,7.0,12.0,83,0.00,,,0.00,VWS V14.00,2013-03-03 10:44:00,
2013-03-03 04:49:00,16.9,12.6,30.10,ESE,118,9.0,12.0,83,0.00,,,0.00,VWS V14.00,2013-03-03 10:49:00,
2013-03-03 04:54:00,16.8,12.5,30.10,ESE,117,10.0,12.0,83,0.00,,,0.00,VWS V14.00,2013-03-03 10:54:00,
2013-03-03 04:59:00,16.9,12.6,30.10,ESE,121,7.0,13.0,83,0.00,,,0.00,VWS V14.00,2013-03-03 10:59:00,
2013-03-03 05:04:00,16.9,12.6,30.10,ESE,115,7.0,11.0,83,0.00,,,0.00,VWS V14.00,2013-03-03 11:04:00,
2013-03-03 05:09:00,16.8,12.5,30.11,ESE,117,8.0,11.0,83,0.00,,,0.00,VWS V14.00,2013-03-03 11:09:00,
2013-03-03 05:14:00,16.7,12.4,30.10,ESE,110,8.0,11.0,83,0.00,,,0.00,VWS V14.00,2013-03-03 11:14:00,
2013-03-03 05:19:00,16.5,12.5,30.10,ESE,119,10.0,11.0,84,0.00,,,0.00,VWS V14.00,2013-03-03 11:19:00,
2013-03-03 05:24:00,16.6,12.6,30.10,ESE,111,10.0,13.0,84,0.00,,,0.00,VWS V14.00,2013-03-03 11:24:00,
2013-03-03 05:29:00,16.5,12.5,30.11,ESE,112,7.0,13.0,84,0.00,,,0.00,VWS V14.00,2013-03-03 11:29:00,
2013-03-03 05:34:00,16.4,12.4,30.11,ESE,114,10.0,11.0,84,0.00,,,0.00,VWS V14.00,2013-03-03 11:34:00,
2013-03-03 05:39:00,16.3,12.6,30.11,ESE,113,9.0,12.0,85,0.00,,,0.00,VWS V14.00,2013-03-03 11:39:00,
2013-03-03 05:44:00,16.2,12.5,30.11,ESE,115,10.0,12.0,85,0.00,,,0.00,VWS V14.00,2013-03-03 11:44:00,
2013-03-03 05:49:00,16.0,12.3,30.11,ESE,121,14.0,14.0,85,0.00,,,0.00,VWS V14.00,2013-03-03 11:49:00,
2013-03-03 05:54:00,16.0,12.3,30.11,ESE,123,9.0,14.0,85,0.00,,,0.00,VWS V14.00,2013-03-03 11:54:00,
2013-03-03 05:59:00,16.0,12.3,30.11,ESE,118,12.0,14.0,85,0.00,,,0.00,VWS V14.00,2013-03-03 11:59:00,
2013-03-03 06:04:00,16.1,12.7,30.11,SE,126,12.0,14.0,86,0.00,,,0.00,VWS V14.00,2013-03-03 12:04:00,
2013-03-03 06:09:00,16.1,12.4,30.11,ESE,120,13.0,16.0,85,0.00,,,0.00,VWS V14.00,2013-03-03 12:09:00,
2013-03-03 06:14:00,16.0,12.3,30.11,SE,125,11.0,16.0,85,0.00,,,0.00,VWS V14.00,2013-03-03 12:14:00,
2013-03-03 06:19:00,16.0,12.3,30.11,ESE,123,14.0,17.0,85,0.00,,,0.00,VWS V14.00,2013-03-03 12:19:00,
2013-03-03 06:24:00,16.1,12.4,30.11,SE,126,16.0,17.0,85,0.00,,,0.00,VWS V14.00,2013-03-03 12:24:00,
2013-03-03 06:29:00,16.1,12.4,30.11,SE,136,17.0,18.0,85,0.00,,,0.00,VWS V14.00,2013-03-03 12:29:00,
2013-03-03 06:34:00,16.2,12.5,30.11,SE,131,13.0,16.0,85,0.00,,,0.00,VWS V14.00,2013-03-03 12:34:00,
2013-03-03 06:39:00,16.1,12.4,30.11,SE,126,15.0,17.0,85,0.00,,,0.00,VWS V14.00,2013-03-03 12:39:00,
2013-03-03 06:44:00,16.2,12.2,30.11,SE,138,14.0,17.0,84,0.00,,,0.00,VWS V14.00,2013-03-03 12:44:00,
2013-03-03 06:49:00,16.2,12.2,30.11,SE,134,16.0,19.0,84,0.00,,,0.00,VWS V14.00,2013-03-03 12:49:00,
2013-03-03 06:54:00,16.3,12.1,30.11,SE,130,17.0,19.0,83,0.00,,,0.00,VWS V14.00,2013-03-03 12:54:00,
2013-03-03 06:59:00,16.4,12.1,30.10,SE,132,18.0,21.0,83,0.00,,,0.00,VWS V14.00,2013-03-03 12:59:00,
2013-03-03 07:04:00,16.4,11.9,30.11,SE,142,11.0,20.0,82,0.00,,,0.00,VWS V14.00,2013-03-03 13:04:00,
2013-03-03 07:09:00,16.5,12.0,30.10,SE,128,17.0,20.0,82,0.00,,,0.00,VWS V14.00,2013-03-03 13:09:00,
2013-03-03 07:14:00,16.5,11.7,30.10,SE,125,15.0,20.0,81,0.00,,,0.00,VWS V14.00,2013-03-03 13:14:00,
2013-03-03 07:19:00,16.5,11.7,30.10,SE,140,13.0,20.0,81,0.00,,,0.00,VWS V14.00,2013-03-03 13:19:00,
2013-03-03 07:24:00,16.5,11.7,30.10,SSE,153,13.0,20.0,81,0.00,,,0.00,VWS V14.00,2013-03-03 13:24:00,
2013-03-03 07:29:00,16.7,11.9,30.10,SE,146,7.0,20.0,81,0.00,,,0.00,VWS V14.00,2013-03-03 13:29:00,
2013-03-03 07:34:00,17.0,12.2,30.10,SE,130,17.0,19.0,81,0.00,,,0.00,VWS V14.00,2013-03-03 13:34:00,
2013-03-03 07:39:00,17.1,12.0,30.10,SE,139,17.0,19.0,80,0.00,,,0.00,VWS V14.00,2013-03-03 13:39:00,
2013-03-03 07:44:00,17.0,11.9,30.10,SE,138,13.0,20.0,80,0.00,,,0.00,VWS V14.00,2013-03-03 13:44:00,
2013-03-03 07:49:00,17.1,12.0,30.09,SE,133,17.0,20.0,80,0.00,,,0.00,VWS V14.00,2013-03-03 13:49:00,
2013-03-03 07:54:00,17.2,12.1,30.09,SSE,147,12.0,20.0,80,0.00,,,0.00,VWS V14.00,2013-03-03 13:54:00,
2013-03-03 07:59:00,17.3,11.9,30.09,SE,140,12.0,20.0,79,0.00,,,0.00,VWS V14.00,2013-03-03 13:59:00,
2013-03-03 08:04:00,17.3,12.2,30.09,SE,141,12.0,17.0,80,0.00,,,0.00,VWS V14.00,2013-03-03 14:04:00,
2013-03-03 08:09:00,17.4,12.0,30.09,SE,132,16.0,18.0,79,0.00,,,0.00,VWS V14.00,2013-03-03 14:09:00,
2013-03-03 08:14:00,17.6,12.2,30.09,SE,145,12.0,20.0,79,0.00,,,0.00,VWS V14.00,2013-03-03 14:14:00,
2013-03-03 08:19:00,17.7,12.3,30.09,SE,125,17.0,20.0,79,0.00,,,0.00,VWS V14.00,2013-03-03 14:19:00,
2013-03-03 08:24:00,17.9,12.5,30.09,SE,126,17.0,20.0,79,0.00,,,0.00,VWS V14.00,2013-03-03 14:24:00,
2013-03-03 08:29:00,18.0,12.6,30.09,SE,140,13.0,20.0,79,0.00,,,0.00,VWS V14.00,2013-03-03 14:29:00,
2013-03-03 08:34:00,18.1,12.4,30.08,ESE,122,16.0,21.0,78,0.00,,,0.00,VWS V14.00,2013-03-03 14:34:00,
2013-03-03 08:39:00,18.2,12.5,30.08,SE,132,17.0,24.0,78,0.00,,,0.00,VWS V14.00,2013-03-03 14:39:00,
2013-03-03 08:44:00,18.3,12.6,30.08,SE,136,15.0,24.0,78,0.00,,,0.00,VWS V14.00,2013-03-03 14:44:00,
2013-03-03 08:49:00,18.4,12.7,30.08,SE,132,14.0,24.0,78,0.00,,,0.00,VWS V14.00,2013-03-03 14:49:00,
2013-03-03 08:54:00,18.6,12.9,30.08,SE,126,18.0,24.0,78,0.00,,,0.00,VWS V14.00,2013-03-03 14:54:00,
2013-03-03 08:59:00,18.8,13.1,30.08,SE,130,18.0,24.0,78,0.00,,,0.00,VWS V14.00,2013-03-03 14:59:00,
2013-03-03 09:04:00,19.0,13.3,30.08,SE,139,17.0,22.0,78,0.00,,,0.00,VWS V14.00,2013-03-03 15:04:00,
2013-03-03 09:09:00,19.1,13.1,30.08,ESE,122,22.0,22.0,77,0.00,,,0.00,VWS V14.00,2013-03-03 15:09:00,
2013-03-03 09:14:00,19.4,13.4,30.08,SE,130,15.0,22.0,77,0.00,,,0.00,VWS V14.00,2013-03-03 15:14:00,
2013-03-03 09:19:00,19.5,13.5,30.08,SE,136,12.0,22.0,77,0.00,,,0.00,VWS V14.00,2013-03-03 15:19:00,
2013-03-03 09:24:00,19.7,13.7,30.08,SE,136,17.0,22.0,77,0.00,,,0.00,VWS V14.00,2013-03-03 15:24:00,
2013-03-03 09:29:00,19.7,13.7,30.08,SE,125,19.0,23.0,77,0.00,,,0.00,VWS V14.00,2013-03-03 15:29:00,
2013-03-03 09:34:00,19.8,13.5,30.08,ESE,123,17.0,20.0,76,0.00,,,0.00,VWS V14.00,2013-03-03 15:34:00,
2013-03-03 09:39:00,20.0,13.7,30.08,SE,130,17.0,21.0,76,0.00,,,0.00,VWS V14.00,2013-03-03 15:39:00,
2013-03-03 09:44:00,20.1,13.8,30.07,SSE,152,19.0,24.0,76,0.00,,,0.00,VWS V14.00,2013-03-03 15:44:00,
2013-03-03 09:48:00,20.3,14.0,30.07,SE,128,17.0,25.0,76,0.00,,,0.00,VWS V14.00,2013-03-03 15:48:00,
2013-03-03 09:53:00,20.4,14.1,30.07,SE,133,20.0,25.0,76,0.00,,,0.00,VWS V14.00,2013-03-03 15:53:00,
2013-03-03 09:58:00,20.7,14.6,30.06,SE,130,15.0,25.0,77,0.00,,,0.00,VWS V14.00,2013-03-03 15:58:00,
2013-03-03 10:03:00,20.9,14.8,30.06,SE,137,18.0,22.0,77,0.00,,,0.00,VWS V14.00,2013-03-03 16:03:00,
2013-03-03 10:08:00,21.2,15.1,30.06,SSE,153,15.0,25.0,77,0.00,,,0.00,VWS V14.00,2013-03-03 16:08:00,
2013-03-03 10:13:00,21.4,15.0,30.06,SE,143,15.0,25.0,76,0.00,,,0.00,VWS V14.00,2013-03-03 16:13:00,
2013-03-03 10:18:00,21.5,15.1,30.06,SE,126,19.0,25.0,76,0.00,,,0.00,VWS V14.00,2013-03-03 16:18:00,
2013-03-03 10:23:00,21.9,15.5,30.06,SSE,152,24.0,25.0,76,0.00,,,0.00,VWS V14.00,2013-03-03 16:23:00,
2013-03-03 10:28:00,22.1,15.7,30.06,SE,126,19.0,25.0,76,0.00,,,0.00,VWS V14.00,2013-03-03 16:28:00,
2013-03-03 10:33:00,22.3,15.9,30.05,SE,126,13.0,20.0,76,0.00,,,0.00,VWS V14.00,2013-03-03 16:33:00,
2013-03-03 10:38:00,22.4,16.0,30.06,SE,128,18.0,27.0,76,0.00,,,0.00,VWS V14.00,2013-03-03 16:38:00,
2013-03-03 10:43:00,22.6,16.2,30.05,ESE,123,21.0,27.0,76,0.00,,,0.00,VWS V14.00,2013-03-03 16:43:00,
2013-03-03 10:48:00,22.8,16.4,30.05,ESE,122,20.0,27.0,76,0.00,,,0.00,VWS V14.00,2013-03-03 16:48:00,
2013-03-03 10:53:00,23.1,16.7,30.05,SE,136,22.0,27.0,76,0.00,,,0.00,VWS V14.00,2013-03-03 16:53:00,
2013-03-03 10:58:00,23.3,16.6,30.05,SE,143,18.0,28.0,75,0.00,,,0.00,VWS V14.00,2013-03-03 16:58:00,
2013-03-03 11:03:00,23.4,16.7,30.05,SE,128,26.0,26.0,75,0.00,,,0.00,VWS V14.00,2013-03-03 17:03:00,
2013-03-03 11:08:00,23.5,16.8,30.04,SE,128,25.0,28.0,75,0.00,,,0.00,VWS V14.00,2013-03-03 17:08:00,
2013-03-03 11:13:00,23.8,17.0,30.04,SE,144,17.0,29.0,75,0.00,,,0.00,VWS V14.00,2013-03-03 17:13:00,
2013-03-03 11:18:00,23.9,17.1,30.04,SE,142,27.0,30.0,75,0.00,,,0.00,VWS V14.00,2013-03-03 17:18:00,
2013-03-03 11:23:00,23.8,17.0,30.04,SE,136,24.0,30.0,75,0.00,,,0.00,VWS V14.00,2013-03-03 17:23:00,
2013-03-03 11:28:00,23.9,17.1,30.04,SE,129,26.0,31.0,75,0.00,,,0.00,VWS V14.00,2013-03-03 17:28:00,
2013-03-03 11:33:00,24.2,17.4,30.04,SE,133,24.0,27.0,75,0.00,,,0.00,VWS V14.00,2013-03-03 17:33:00,
2013-03-03 11:38:00,24.2,17.4,30.04,SE,128,21.0,31.0,75,0.00,,,0.00,VWS V14.00,2013-03-03 17:38:00,
2013-03-03 11:43:00,24.5,17.7,30.04,SE,129,18.0,31.0,75,0.00,,,0.00,VWS V14.00,2013-03-03 17:43:00,
2013-03-03 11:48:00,24.4,17.3,30.04,SSE,148,19.0,31.0,74,0.00,,,0.00,VWS V14.00,2013-03-03 17:48:00,
2013-03-03 11:53:00,24.8,18.0,30.04,SE,124,16.0,31.0,75,0.00,,,0.00,VWS V14.00,2013-03-03 17:53:00,
2013-03-03 11:58:00,25.1,18.3,30.04,SE,132,20.0,31.0,75,0.00,,,0.00,VWS V14.00,2013-03-03 17:58:00,
2013-03-03 12:03:00,25.0,18.2,30.04,ESE,115,19.0,20.0,75,0.00,,,0.00,VWS V14.00,2013-03-03 18:03:00,
2013-03-03 12:08:00,25.2,18.4,30.03,SE,130,15.0,28.0,75,0.00,,,0.00,VWS V14.00,2013-03-03 18:08:00,
2013-03-03 12:13:00,25.2,18.1,30.03,SE,128,26.0,28.0,74,0.00,,,0.00,VWS V14.00,2013-03-03 18:13:00,
2013-03-03 12:18:00,25.4,18.3,30.03,SE,141,19.0,28.0,74,0.00,,,0.00,VWS V14.00,2013-03-03 18:18:00,
2013-03-03 12:23:00,25.5,18.7,30.02,SSE,148,15.0,30.0,75,0.00,,,0.00,VWS V14.00,2013-03-03 18:23:00,
2013-03-03 12:28:00,25.5,18.4,30.02,SE,125,22.0,30.0,74,0.00,,,0.00,VWS V14.00,2013-03-03 18:28:00,
2013-03-03 12:33:00,25.4,18.3,30.02,SE,129,27.0,30.0,74,0.00,,,0.00,VWS V14.00,2013-03-03 18:33:00,
2013-03-03 12:38:00,25.7,18.6,30.02,SSE,149,22.0,30.0,74,0.00,,,0.00,VWS V14.00,2013-03-03 18:38:00,
2013-03-03 12:43:00,25.7,18.6,30.01,ESE,117,19.0,30.0,74,0.00,,,0.00,VWS V14.00,2013-03-03 18:43:00,
2013-03-03 12:48:00,25.6,18.5,30.01,SE,135,19.0,30.0,74,0.00,,,0.00,VWS V14.00,2013-03-03 18:48:00,
2013-03-03 12:53:00,26.0,19.2,30.01,SE,128,26.0,31.0,75,0.00,,,0.00,VWS V14.00,2013-03-03 18:53:00,
2013-03-03 12:58:00,25.8,18.7,30.01,SE,130,21.0,32.0,74,0.00,,,0.00,VWS V14.00,2013-03-03 18:58:00,
2013-03-03 13:03:00,25.9,18.8,30.01,SE,131,24.0,26.0,74,0.00,,,0.00,VWS V14.00,2013-03-03 19:03:00,
2013-03-03 13:08:00,26.0,18.9,30.01,ESE,123,23.0,30.0,74,0.00,,,0.00,VWS V14.00,2013-03-03 19:08:00,
2013-03-03 13:13:00,26.1,19.0,30.01,SE,138,23.0,30.0,74,0.00,,,0.00,VWS V14.00,2013-03-03 19:13:00,
2013-03-03 13:18:00,26.0,18.9,30.00,ESE,122,19.0,30.0,74,0.00,,,0.00,VWS V14.00,2013-03-03 19:18:00,
2013-03-03 13:23:00,26.1,19.3,30.00,SE,145,16.0,30.0,75,0.00,,,0.00,VWS V14.00,2013-03-03 19:23:00,
2013-03-03 13:28:00,26.2,19.1,30.00,SSE,153,18.0,30.0,74,0.00,,,0.00,VWS V14.00,2013-03-03 19:28:00,
2013-03-03 13:33:00,26.3,19.1,30.00,SE,129,17.0,21.0,74,0.00,,,0.00,VWS V14.00,2013-03-03 19:33:00,
2013-03-03 13:38:00,26.4,18.9,30.00,SE,130,19.0,24.0,73,0.00,,,0.00,VWS V14.00,2013-03-03 19:38:00,
2013-03-03 13:43:00,26.6,19.1,30.00,SE,141,16.0,24.0,73,0.00,,,0.00,VWS V14.00,2013-03-03 19:43:00,
2013-03-03 13:48:00,26.6,19.1,29.99,ESE,122,16.0,24.0,73,0.00,,,0.00,VWS V14.00,2013-03-03 19:48:00,
2013-03-03 13:53:00,26.3,18.5,29.99,SE,132,21.0,27.0,72,0.00,,,0.00,VWS V14.00,2013-03-03 19:53:00,
2013-03-03 13:58:00,26.4,18.3,29.99,SE,140,18.0,27.0,71,0.00,,,0.00,VWS V14.00,2013-03-03 19:58:00,
2013-03-03 14:03:00,26.6,18.5,29.99,SE,145,24.0,24.0,71,0.00,,,0.00,VWS V14.00,2013-03-03 20:03:00,
2013-03-03 14:08:00,26.7,18.6,29.99,SSE,148,13.0,26.0,71,0.00,,,0.00,VWS V14.00,2013-03-03 20:08:00,
2013-03-03 14:13:00,26.7,18.2,29.98,SE,128,24.0,29.0,70,0.00,,,0.00,VWS V14.00,2013-03-03 20:13:00,
2013-03-03 14:18:00,26.8,18.3,29.98,SE,132,16.0,32.0,70,0.00,,,0.00,VWS V14.00,2013-03-03 20:18:00,
2013-03-03 14:23:00,26.9,18.4,29.98,SE,137,15.0,32.0,70,0.00,,,0.00,VWS V14.00,2013-03-03 20:23:00,
2013-03-03 14:28:00,26.7,17.9,29.98,SE,146,18.0,32.0,69,0.00,,,0.00,VWS V14.00,2013-03-03 20:28:00,
2013-03-03 14:33:00,26.7,17.6,29.98,SE,132,23.0,32.0,68,0.00,,,0.00,VWS V14.00,2013-03-03 20:33:00,
2013-03-03 14:38:00,26.7,17.2,29.98,SE,138,22.0,29.0,67,0.00,,,0.00,VWS V14.00,2013-03-03 20:38:00,
2013-03-03 14:43:00,26.7,17.2,29.98,SE,134,22.0,30.0,67,0.00,,,0.00,VWS V14.00,2013-03-03 20:43:00,
2013-03-03 14:48:00,26.7,16.9,29.98,SE,136,19.0,33.0,66,0.00,,,0.00,VWS V14.00,2013-03-03 20:48:00,
2013-03-03 14:53:00,26.8,17.0,29.98,SE,138,18.0,33.0,66,0.00,,,0.00,VWS V14.00,2013-03-03 20:53:00,
2013-03-03 14:58:00,26.9,17.4,29.98,SE,144,23.0,33.0,67,0.00,,,0.01,VWS V14.00,2013-03-03 20:58:00,
2013-03-03 15:03:00,26.7,16.2,29.98,SE,128,26.0,33.0,64,0.00,,,0.01,VWS V14.00,2013-03-03 21:03:00,
2013-03-03 15:08:00,26.7,16.2,29.98,SE,126,27.0,27.0,64,0.00,,,0.01,VWS V14.00,2013-03-03 21:08:00,
2013-03-03 15:13:00,26.7,15.4,29.97,SE,127,25.0,31.0,62,0.00,,,0.01,VWS V14.00,2013-03-03 21:13:00,
2013-03-03 15:18:00,26.6,15.4,29.97,SSE,147,18.0,31.0,62,0.00,,,0.01,VWS V14.00,2013-03-03 21:18:00,
2013-03-03 15:23:00,26.6,14.6,29.97,SE,129,25.0,31.0,60,0.00,,,0.01,VWS V14.00,2013-03-03 21:23:00,
2013-03-03 15:28:00,26.6,13.8,29.97,ESE,122,23.0,33.0,58,0.00,,,0.01,VWS V14.00,2013-03-03 21:28:00,
2013-03-03 15:33:00,26.5,13.7,29.97,SSE,148,20.0,33.0,58,0.00,,,0.01,VWS V14.00,2013-03-03 21:33:00,
2013-03-03 15:38:00,26.5,13.3,29.97,SE,138,19.0,32.0,57,0.00,,,0.01,VWS V14.00,2013-03-03 21:38:00,
2013-03-03 15:43:00,26.6,13.4,29.97,SE,140,25.0,32.0,57,0.00,,,0.01,VWS V14.00,2013-03-03 21:43:00,
2013-03-03 15:48:00,26.5,13.3,29.98,SE,126,21.0,32.0,57,0.00,,,0.01,VWS V14.00,2013-03-03 21:48:00,
2013-03-03 15:53:00,26.5,13.7,29.97,SE,133,23.0,32.0,58,0.00,,,0.01,VWS V14.00,2013-03-03 21:53:00,
2013-03-03 15:58:00,26.4,12.8,29.97,ESE,115,25.0,32.0,56,0.00,,,0.01,VWS V14.00,2013-03-03 21:58:00,
2013-03-03 16:03:00,26.4,12.8,29.97,SE,131,28.0,32.0,56,0.00,,,0.01,VWS V14.00,2013-03-03 22:03:00,
2013-03-03 16:08:00,26.5,12.9,29.97,SE,130,24.0,29.0,56,0.00,,,0.01,VWS V14.00,2013-03-03 22:08:00,
2013-03-03 16:13:00,26.5,12.1,29.97,SE,129,27.0,33.0,54,0.00,,,0.01,VWS V14.00,2013-03-03 22:13:00,
2013-03-03 16:18:00,26.6,12.6,29.97,ESE,123,22.0,33.0,55,0.00,,,0.01,VWS V14.00,2013-03-03 22:18:00,
2013-03-03 16:23:00,26.6,12.6,29.96,SE,132,16.0,33.0,55,0.00,,,0.01,VWS V14.00,2013-03-03 22:23:00,
2013-03-03 16:27:00,26.7,12.3,29.97,SE,132,23.0,33.0,54,0.00,,,0.01,VWS V14.00,2013-03-03 22:27:00,
2013-03-03 16:32:00,26.7,13.1,29.97,ESE,123,20.0,33.0,56,0.00,,,0.01,VWS V14.00,2013-03-03 22:32:00,
2013-03-03 16:37:00,26.8,12.8,29.96,ESE,118,19.0,29.0,55,0.00,,,0.01,VWS V14.00,2013-03-03 22:37:00,
2013-03-03 16:42:00,26.9,12.9,29.96,ESE,123,16.0,29.0,55,0.00,,,0.01,VWS V14.00,2013-03-03 22:42:00,
2013-03-03 16:47:00,26.9,13.3,29.97,ESE,115,22.0,29.0,56,0.00,,,0.01,VWS V14.00,2013-03-03 22:47:00,
2013-03-03 16:52:00,26.9,13.3,29.97,ESE,119,24.0,30.0,56,0.00,,,0.01,VWS V14.00,2013-03-03 22:52:00,
2013-03-03 16:57:00,27.0,12.6,29.97,SE,133,29.0,32.0,54,0.00,,,0.01,VWS V14.00,2013-03-03 22:57:00,
2013-03-03 17:02:00,27.0,12.6,29.97,SE,140,18.0,32.0,54,0.00,,,0.01,VWS V14.00,2013-03-03 23:02:00,
2013-03-03 17:07:00,27.1,12.2,29.97,SE,130,19.0,31.0,53,0.00,,,0.01,VWS V14.00,2013-03-03 23:07:00,
2013-03-03 17:12:00,27.0,12.6,29.98,SE,136,25.0,31.0,54,0.00,,,0.01,VWS V14.00,2013-03-03 23:12:00,
2013-03-03 17:17:00,27.1,12.2,29.98,SE,138,15.0,31.0,53,0.00,,,0.01,VWS V14.00,2013-03-03 23:17:00,
2013-03-03 17:22:00,27.2,12.4,29.98,SE,133,21.0,31.0,53,0.00,,,0.01,VWS V14.00,2013-03-03 23:22:00,
2013-03-03 17:27:00,27.1,12.7,29.98,SE,128,22.0,31.0,54,0.00,,,0.01,VWS V14.00,2013-03-03 23:27:00,
2013-03-03 17:32:00,27.2,13.2,29.98,SE,138,19.0,31.0,55,0.00,,,0.01,VWS V14.00,2013-03-03 23:32:00,
2013-03-03 17:37:00,27.1,13.1,29.98,SE,127,18.0,25.0,55,0.00,,,0.01,VWS V14.00,2013-03-03 23:37:00,
2013-03-03 17:42:00,27.1,13.5,29.97,ESE,115,15.0,25.0,56,0.00,,,0.01,VWS V14.00,2013-03-03 23:42:00,
2013-03-03 17:47:00,27.1,13.5,29.97,ESE,106,16.0,25.0,56,0.00,,,0.01,VWS V14.00,2013-03-03 23:47:00,
2013-03-03 17:52:00,27.2,13.6,29.97,SE,142,16.0,26.0,56,0.00,,,0.01,VWS V14.00,2013-03-03 23:52:00,
2013-03-03 17:57:00,27.2,13.6,29.97,SE,128,21.0,26.0,56,0.00,,,0.01,VWS V14.00,2013-03-03 23:57:00,
2013-03-03 18:02:00,27.2,13.6,29.97,ESE,111,13.0,26.0,56,0.00,,,0.01,VWS V14.00,2013-03-04 00:02:00,
2013-03-03 18:07:00,27.1,13.5,29.97,ESE,114,21.0,25.0,56,0.00,,,0.01,VWS V14.00,2013-03-04 00:07:00,
2013-03-03 18:12:00,27.1,13.5,29.97,SE,126,14.0,25.0,56,0.00,,,0.01,VWS V14.00,2013-03-04 00:12:00,
2013-03-03 18:17:00,27.2,13.6,29.97,SE,130,18.0,25.0,56,0.00,,,0.01,VWS V14.00,2013-03-04 00:17:00,
2013-03-03 18:22:00,27.2,13.6,29.97,SE,129,23.0,28.0,56,0.00,,,0.01,VWS V14.00,2013-03-04 00:22:00,
2013-03-03 18:27:00,27.2,13.6,29.97,ESE,119,19.0,28.0,56,0.00,,,0.01,VWS V14.00,2013-03-04 00:27:00,
2013-03-03 18:32:00,27.2,13.6,29.97,ESE,121,21.0,28.0,56,0.00,,,0.01,VWS V14.00,2013-03-04 00:32:00,
2013-03-03 18:37:00,27.4,13.4,29.97,SE,128,29.0,30.0,55,0.00,,,0.01,VWS V14.00,2013-03-04 00:37:00,
2013-03-03 18:42:00,27.4,13.4,29.97,ESE,120,19.0,30.0,55,0.00,,,0.01,VWS V14.00,2013-03-04 00:42:00,
2013-03-03 18:47:00,27.4,13.4,29.97,SE,126,18.0,30.0,55,0.00,,,0.01,VWS V14.00,2013-03-04 00:47:00,
2013-03-03 18:52:00,27.4,13.4,29.97,ESE,119,25.0,30.0,55,0.00,,,0.01,VWS V14.00,2013-03-04 00:52:00,
2013-03-03 18:57:00,27.3,13.3,29.97,ESE,116,23.0,30.0,55,0.00,,,0.01,VWS V14.00,2013-03-04 00:57:00,
2013-03-03 19:02:00,27.4,13.8,29.97,SE,136,18.0,30.0,56,0.00,,,0.01,VWS V14.00,2013-03-04 01:02:00,
2013-03-03 19:07:00,27.3,13.7,29.96,ESE,122,19.0,27.0,56,0.00,,,0.01,VWS V14.00,2013-03-04 01:07:00,
2013-03-03 19:12:00,27.3,13.7,29.96,ESE,122,24.0,28.0,56,0.00,,,0.01,VWS V14.00,2013-03-04 01:12:00,
2013-03-03 19:17:00,27.3,13.7,29.97,ESE,123,21.0,29.0,56,0.00,,,0.01,VWS V14.00,2013-03-04 01:17:00,
2013-03-03 19:22:00,27.3,13.7,29.97,ESE,121,19.0,29.0,56,0.00,,,0.01,VWS V14.00,2013-03-04 01:22:00,
2013-03-03 19:27:00,27.3,13.7,29.97,ESE,112,18.0,29.0,56,0.00,,,0.01,VWS V14.00,2013-03-04 01:27:00,
2013-03-03 19:32:00,27.2,13.6,29.97,ESE,118,21.0,29.0,56,0.00,,,0.01,VWS V14.00,2013-03-04 01:32:00,
2013-03-03 19:37:00,27.2,14.0,29.97,ESE,115,25.0,31.0,57,0.00,,,0.01,VWS V14.00,2013-03-04 01:37:00,
2013-03-03 19:42:00,27.1,13.9,29.97,ESE,108,21.0,31.0,57,0.00,,,0.01,VWS V14.00,2013-03-04 01:42:00,
2013-03-03 19:47:00,27.1,13.9,29.97,ESE,119,19.0,31.0,57,0.00,,,0.01,VWS V14.00,2013-03-04 01:47:00,
2013-03-03 19:52:00,27.1,13.5,29.97,SE,124,21.0,33.0,56,0.00,,,0.01,VWS V14.00,2013-03-04 01:52:00,
2013-03-03 19:57:00,27.0,13.8,29.97,ESE,115,21.0,33.0,57,0.00,,,0.01,VWS V14.00,2013-03-04 01:57:00,
2013-03-03 20:02:00,26.9,13.7,29.97,ESE,121,23.0,33.0,57,0.00,,,0.01,VWS V14.00,2013-03-04 02:02:00,
2013-03-03 20:07:00,27.0,13.4,29.96,ESE,120,24.0,31.0,56,0.00,,,0.01,VWS V14.00,2013-03-04 02:07:00,
2013-03-03 20:12:00,27.0,13.0,29.96,ESE,112,19.0,31.0,55,0.00,,,0.01,VWS V14.00,2013-03-04 02:12:00,
2013-03-03 20:17:00,26.9,13.3,29.96,SE,126,29.0,31.0,56,0.00,,,0.01,VWS V14.00,2013-03-04 02:17:00,
2013-03-03 20:22:00,26.8,13.2,29.96,ESE,117,27.0,31.0,56,0.00,,,0.01,VWS V14.00,2013-03-04 02:22:00,
2013-03-03 20:27:00,26.8,12.8,29.96,SE,135,22.0,31.0,55,0.00,,,0.01,VWS V14.00,2013-03-04 02:27:00,
2013-03-03 20:32:00,26.9,12.5,29.96,ESE,120,23.0,31.0,54,0.00,,,0.01,VWS V14.00,2013-03-04 02:32:00,
2013-03-03 20:37:00,26.9,12.5,29.96,SE,125,23.0,29.0,54,0.00,,,0.01,VWS V14.00,2013-03-04 02:37:00,
2013-03-03 20:42:00,26.7,12.7,29.96,ESE,115,24.0,29.0,55,0.00,,,0.01,VWS V14.00,2013-03-04 02:42:00,
2013-03-03 20:47:00,26.8,12.4,29.96,SE,135,22.0,33.0,54,0.00,,,0.01,VWS V14.00,2013-03-04 02:47:00,
2013-03-03 20:52:00,26.8,12.4,29.96,SE,126,17.0,33.0,54,0.00,,,0.01,VWS V14.00,2013-03-04 02:52:00,
2013-03-03 20:57:00,26.6,12.2,29.95,ESE,118,27.0,33.0,54,0.00,,,0.01,VWS V14.00,2013-03-04 02:57:00,
2013-03-03 21:02:00,26.7,12.3,29.95,SE,142,22.0,36.0,54,0.00,,,0.01,VWS V14.00,2013-03-04 03:02:00,
2013-03-03 21:07:00,26.6,12.2,29.95,SE,130,28.0,33.0,54,0.00,,,0.01,VWS V14.00,2013-03-04 03:07:00,
2013-03-03 21:12:00,26.6,13.8,29.95,SE,130,21.0,35.0,58,0.00,,,0.01,VWS V14.00,2013-03-04 03:12:00,
2013-03-03 21:17:00,26.5,12.1,29.95,ESE,121,28.0,35.0,54,0.00,,,0.01,VWS V14.00,2013-03-04 03:17:00,
2013-03-03 21:22:00,26.5,12.1,29.95,SE,145,23.0,35.0,54,0.00,,,0.01,VWS V14.00,2013-03-04 03:22:00,
2013-03-03 21:27:00,26.3,12.8,29.95,SE,132,17.0,35.0,56,0.00,,,0.01,VWS V14.00,2013-03-04 03:27:00,
2013-03-03 21:32:00,26.2,12.2,29.95,ESE,121,23.0,35.0,55,0.00,,,0.01,VWS V14.00,2013-03-04 03:32:00,
2013-03-03 21:37:00,26.1,13.0,29.95,ESE,119,22.0,25.0,57,0.00,,,0.01,VWS V14.00,2013-03-04 03:37:00,
2013-03-03 21:42:00,26.1,13.0,29.95,ESE,117,22.0,31.0,57,0.00,,,0.01,VWS V14.00,2013-03-04 03:42:00,
2013-03-03 21:47:00,26.1,13.0,29.95,ESE,121,20.0,31.0,57,0.00,,,0.01,VWS V14.00,2013-03-04 03:47:00,
2013-03-03 21:52:00,26.1,13.0,29.95,SE,126,24.0,33.0,57,0.00,,,0.01,VWS V14.00,2013-03-04 03:52:00,
2013-03-03 21:57:00,26.0,13.3,29.95,ESE,122,20.0,33.0,58,0.00,,,0.01,VWS V14.00,2013-03-04 03:57:00,
2013-03-03 22:02:00,25.8,13.5,29.95,ESE,119,24.0,33.0,59,0.00,,,0.01,VWS V14.00,2013-03-04 04:02:00,
2013-03-03 22:07:00,25.9,13.6,29.95,SE,130,22.0,28.0,59,0.00,,,0.01,VWS V14.00,2013-03-04 04:07:00,
2013-03-03 22:12:00,26.0,13.3,29.94,ESE,118,22.0,33.0,58,0.00,,,0.01,VWS V14.00,2013-03-04 04:12:00,
2013-03-03 22:17:00,25.8,13.9,29.94,SE,134,32.0,33.0,60,0.00,,,0.01,VWS V14.00,2013-03-04 04:17:00,
2013-03-03 22:22:00,25.8,13.5,29.94,ESE,114,24.0,33.0,59,0.00,,,0.01,VWS V14.00,2013-03-04 04:22:00,
2013-03-03 22:27:00,25.8,13.9,29.94,SE,128,19.0,33.0,60,0.00,,,0.01,VWS V14.00,2013-03-04 04:27:00,
2013-03-03 22:32:00,25.7,13.8,29.94,SE,126,24.0,33.0,60,0.00,,,0.01,VWS V14.00,2013-03-04 04:32:00,
2013-03-03 22:36:00,25.7,13.8,29.94,SE,130,19.0,32.0,60,0.00,,,0.01,VWS V14.00,2013-03-04 04:36:00,
2013-03-03 22:41:00,25.7,13.8,29.94,SE,137,23.0,32.0,60,0.00,,,0.01,VWS V14.00,2013-03-04 04:41:00,
2013-03-03 22:46:00,25.6,13.7,29.94,SE,128,21.0,32.0,60,0.00,,,0.01,VWS V14.00,2013-03-04 04:46:00,
2013-03-03 22:51:00,25.6,14.0,29.94,SE,132,22.0,32.0,61,0.00,,,0.01,VWS V14.00,2013-03-04 04:51:00,
2013-03-03 22:56:00,25.7,13.8,29.95,SE,130,22.0,32.0,60,0.00,,,0.01,VWS V14.00,2013-03-04 04:56:00,
2013-03-03 23:00:00,25.6,13.7,29.95,SE,132,22.0,32.0,60,0.00,,,0.01,VWS V14.00,2013-03-04 05:00:00,
2013-03-03 23:05:00,25.6,13.7,29.94,SE,136,25.0,29.0,60,0.00,,,0.01,VWS V14.00,2013-03-04 05:05:00,
2013-03-03 23:10:00,25.5,13.6,29.94,SE,133,29.0,31.0,60,0.00,,,0.01,VWS V14.00,2013-03-04 05:10:00,
2013-03-03 23:15:00,25.4,13.8,29.94,SE,142,23.0,32.0,61,0.00,,,0.01,VWS V14.00,2013-03-04 05:15:00,
2013-03-03 23:20:00,25.4,13.8,29.95,SE,140,25.0,33.0,61,0.00,,,0.01,VWS V14.00,2013-03-04 05:20:00,
2013-03-03 23:25:00,25.2,14.0,29.95,SE,130,21.0,33.0,62,0.00,,,0.01,VWS V14.00,2013-03-04 05:25:00,
2013-03-03 23:30:00,25.2,14.0,29.95,SSE,148,20.0,33.0,62,0.00,,,0.01,VWS V14.00,2013-03-04 05:30:00,
2013-03-03 23:35:00,25.1,14.3,29.95,SSE,165,16.0,27.0,63,0.00,,,0.01,VWS V14.00,2013-03-04 05:35:00,
2013-03-03 23:40:00,24.9,14.5,29.95,SE,133,17.0,33.0,64,0.00,,,0.01,VWS V14.00,2013-03-04 05:40:00,
2013-03-03 23:45:00,24.8,14.7,29.95,SE,134,24.0,33.0,65,0.00,,,0.01,VWS V14.00,2013-03-04 05:45:00,
2013-03-03 23:50:00,24.6,14.9,29.95,SE,133,19.0,33.0,66,0.00,,,0.01,VWS V14.00,2013-03-04 05:50:00,
2013-03-03 23:55:00,24.4,15.0,29.95,SE,145,21.0,33.0,67,0.00,,,0.01,VWS V14.00,2013-03-04 05:55:00,